Houston Hull, TX

10:08 AM CST on December 10, 2019 (GMT -0600)
Sugar Land Municipal-Hull

Weather History for KSGR - November, 2019

Change the Weather History Date:

Saturday, November 16, 2019

  Actual Average Record
Temperature  
Mean Temperature 50 °F -  
Max Temperature 63 °F 71 °F 88 °F (1951)
Min Temperature 37 °F 49 °F 28 °F (1970)
Degree Days  
Heating Degree Days 15    
Moisture  
Dew Point 39 °F    
Average Humidity 74    
Maximum Humidity 100    
Minimum Humidity 38    
Precipitation  
Precipitation 0.00 in - - ()
Sea Level Pressure  
Sea Level Pressure 30.21 in    
Wind  
Wind Speed 2 mph (East)    
Max Wind Speed 9 mph    
Max Gust Speed -    
Visibility 9 miles    
Events      
Averages and records for this station are not official NWS values.
T = Trace of Precipitation, MM = Missing Value Source: NWS Daily Summary

Daily Weather History Graph

Daily Weather History Graph

Search for Another Location

Airport or City:

Astronomy

Nov. 16, 2019 Rise Set
Actual Time 6:47 AM CST 5:26 PM CST
Civil Twilight 6:22 AM CST 5:52 PM CST
Nautical Twilight 5:53 AM CST 6:20 PM CST
Astronomical Twilight 5:25 AM CST 6:49 PM CST
Moon 9:08 PM CST (11/16) 10:34 AM CST (11/16)
Length of Visible Light 11h 29m
Length of Day
10h 39m
Waning Gibbous, 82% of the Moon is Illuminated
Nov 16
Waning Gibbous
Nov 19
Last Quarter
Nov 26
New
Dec 4
First Quarter
Dec 11
Full

Hourly Weather History & Observations

Time (CST) Temp. Windchill Dew Point Humidity Pressure Visibility Wind Dir Wind Speed Gust Speed Precip Events Conditions
12:53 AM 39.0 °F - 37.9 °F 96% 30.29 in 6.0 mi Calm Calm - N/A   Clear
1:53 AM 37.9 °F - 37.9 °F 100% 30.27 in 7.0 mi Calm Calm - N/A   Clear
2:53 AM 39.0 °F - 37.9 °F 96% 30.25 in 6.0 mi Calm Calm - N/A   Clear
3:53 AM 37.9 °F 32.7 °F 36.0 °F 93% 30.26 in 10.0 mi North 6.9 mph - N/A   Clear
4:53 AM 37.9 °F - 37.0 °F 97% 30.26 in 6.0 mi Calm Calm - N/A   Clear
5:53 AM 37.0 °F - 36.0 °F 96% 30.27 in 5.0 mi Calm Calm - N/A   Clear
6:53 AM 39.0 °F - 37.9 °F 96% 30.27 in 6.0 mi Calm Calm - N/A   Clear
7:53 AM 42.1 °F - 41.0 °F 96% 30.30 in 9.0 mi Calm Calm - N/A   Clear
8:53 AM 51.1 °F - 43.0 °F 74% 30.30 in 10.0 mi East 4.6 mph - N/A   Clear
9:53 AM 55.0 °F - 39.0 °F 55% 30.30 in 10.0 mi East 9.2 mph - N/A   Clear
10:53 AM 57.9 °F - 39.0 °F 49% 30.28 in 10.0 mi East 6.9 mph - N/A   Clear
11:53 AM 59.0 °F - 39.9 °F 49% 30.24 in 10.0 mi Variable 5.8 mph - N/A   Clear
12:53 PM 60.1 °F - 37.0 °F 42% 30.19 in 10.0 mi Calm Calm - N/A   Clear
1:53 PM 62.1 °F - 37.0 °F 39% 30.15 in 10.0 mi East 4.6 mph - N/A   Clear
2:53 PM 63.0 °F - 37.9 °F 40% 30.14 in 10.0 mi East 3.5 mph - N/A   Clear
3:53 PM 63.0 °F - 37.0 °F 38% 30.14 in 10.0 mi Calm Calm - N/A   Clear
4:53 PM 59.0 °F - 39.9 °F 49% 30.13 in 10.0 mi Calm Calm - N/A   Clear
5:53 PM 50.0 °F - 43.0 °F 77% 30.14 in 10.0 mi Calm Calm - N/A   Clear
6:53 PM 51.1 °F - 41.0 °F 68% 30.14 in 10.0 mi Calm Calm - N/A   Clear
7:53 PM 48.0 °F - 42.1 °F 80% 30.15 in 10.0 mi Calm Calm - N/A   Clear
8:53 PM 48.0 °F - 42.1 °F 80% 30.14 in 10.0 mi Calm Calm - N/A   Clear
9:53 PM 44.1 °F 42.5 °F 42.1 °F 93% 30.12 in 10.0 mi South 3.5 mph - N/A   Clear
10:53 PM 46.0 °F - 43.0 °F 89% 30.12 in 10.0 mi Calm Calm - N/A   Clear
11:53 PM 43.0 °F - 41.0 °F 93% 30.12 in 10.0 mi Calm Calm - N/A   Clear